Time,TemperatureF,DewpointF,PressureIn,WindDirection,WindDirectionDegrees,WindSpeedMPH,WindSpeedGustMPH,Humidity,HourlyPrecipIn,Conditions,Clouds,dailyrainin,SolarRadiationWatts/m^2,SoftwareType,DateUTC
2013-07-19 00:01:00,58.6,50.7,30.05,SW,221,5.0,8.0,75,0.00,,,0.00,0.0,meteohub,2013-07-19 07:01:00,
2013-07-19 00:06:00,58.6,51.1,30.05,WSW,246,8.0,8.0,76,0.00,,,0.00,0.0,meteohub,2013-07-19 07:06:00,
2013-07-19 00:11:00,58.5,50.9,30.05,SW,225,3.0,9.0,76,0.00,,,0.00,0.0,meteohub,2013-07-19 07:11:00,
2013-07-19 00:16:00,58.3,51.1,30.05,WSW,249,4.0,9.0,77,0.00,,,0.00,0.0,meteohub,2013-07-19 07:16:00,
2013-07-19 00:21:00,58.3,51.1,30.05,WSW,237,4.0,9.0,77,0.00,,,0.00,0.0,meteohub,2013-07-19 07:21:00,
2013-07-19 00:27:00,58.3,51.4,30.05,SW,234,5.0,8.0,78,0.00,,,0.00,0.0,meteohub,2013-07-19 07:27:00,
2013-07-19 00:32:00,58.1,51.3,30.05,WSW,244,2.0,8.0,78,0.00,,,0.00,0.0,meteohub,2013-07-19 07:32:00,
2013-07-19 00:37:00,57.9,51.1,30.05,WSW,246,4.0,10.0,78,0.00,,,0.00,0.0,meteohub,2013-07-19 07:37:00,
2013-07-19 00:42:00,57.9,51.4,30.05,West,267,3.0,10.0,79,0.00,,,0.00,0.0,meteohub,2013-07-19 07:42:00,
2013-07-19 00:47:00,57.9,51.4,30.05,WSW,237,3.0,10.0,79,0.00,,,0.00,0.0,meteohub,2013-07-19 07:47:00,
2013-07-19 00:52:00,57.7,51.6,30.05,WSW,257,1.0,8.0,80,0.00,,,0.00,0.0,meteohub,2013-07-19 07:52:00,
2013-07-19 00:57:00,57.7,51.6,30.05,West,267,4.0,6.0,80,0.00,,,0.00,0.0,meteohub,2013-07-19 07:57:00,
2013-07-19 01:02:00,57.6,51.4,30.04,South,188,6.0,9.0,80,0.00,,,0.00,0.0,meteohub,2013-07-19 08:02:00,
2013-07-19 01:07:00,57.6,51.8,30.04,WSW,249,5.0,9.0,81,0.00,,,0.00,0.0,meteohub,2013-07-19 08:07:00,
2013-07-19 01:12:00,57.4,51.6,30.04,SW,221,4.0,10.0,81,0.00,,,0.00,0.0,meteohub,2013-07-19 08:12:00,
2013-07-19 01:17:00,57.0,51.3,30.04,SW,232,6.0,10.0,81,0.00,,,0.00,0.0,meteohub,2013-07-19 08:17:00,
2013-07-19 01:22:00,57.0,51.3,30.04,SW,215,3.0,10.0,81,0.00,,,0.00,0.0,meteohub,2013-07-19 08:22:00,
2013-07-19 01:27:00,56.8,51.4,30.04,SW,235,3.0,8.0,82,0.00,,,0.00,0.0,meteohub,2013-07-19 08:27:00,
2013-07-19 01:32:00,56.8,51.4,30.04,SW,223,6.0,8.0,82,0.00,,,0.00,0.0,meteohub,2013-07-19 08:32:00,
2013-07-19 01:37:00,56.8,51.4,30.04,SW,231,5.0,7.0,82,0.00,,,0.00,0.0,meteohub,2013-07-19 08:37:00,
2013-07-19 01:42:00,56.7,51.3,30.04,SW,227,3.0,7.0,82,0.00,,,0.00,0.0,meteohub,2013-07-19 08:42:00,
2013-07-19 01:47:00,56.5,51.1,30.04,SW,230,2.0,7.0,82,0.00,,,0.00,0.0,meteohub,2013-07-19 08:47:00,
2013-07-19 01:52:00,56.5,51.4,30.03,SSW,211,3.0,7.0,83,0.00,,,0.00,0.0,meteohub,2013-07-19 08:52:00,
2013-07-19 01:57:00,56.1,51.4,30.03,WSW,255,0.0,7.0,84,0.00,,,0.00,0.0,meteohub,2013-07-19 08:57:00,
2013-07-19 02:02:00,55.9,51.3,30.03,SW,216,0.0,7.0,84,0.00,,,0.00,0.0,meteohub,2013-07-19 09:02:00,
2013-07-19 02:07:00,55.9,51.3,30.03,WSW,240,2.0,6.0,84,0.00,,,0.00,0.0,meteohub,2013-07-19 09:07:00,
2013-07-19 02:12:00,55.8,51.3,30.03,WSW,240,0.0,6.0,85,0.00,,,0.00,0.0,meteohub,2013-07-19 09:12:00,
2013-07-19 02:17:00,55.8,51.3,30.02,WSW,249,3.0,6.0,85,0.00,,,0.00,0.0,meteohub,2013-07-19 09:17:00,
2013-07-19 02:22:00,55.8,51.3,30.02,SW,235,2.0,8.0,85,0.00,,,0.00,0.0,meteohub,2013-07-19 09:22:00,
2013-07-19 02:27:00,55.8,51.3,30.02,SW,228,4.0,8.0,85,0.00,,,0.00,0.0,meteohub,2013-07-19 09:27:00,
2013-07-19 02:32:00,55.6,51.1,30.03,West,264,4.0,8.0,85,0.00,,,0.00,0.0,meteohub,2013-07-19 09:32:00,
2013-07-19 02:37:00,55.8,51.6,30.02,NW,310,2.0,6.0,86,0.00,,,0.00,0.0,meteohub,2013-07-19 09:37:00,
2013-07-19 02:38:00,55.8,51.3,30.02,West,272,0.0,6.0,85,0.00,,,0.00,0.0,meteohub,2013-07-19 09:38:00,
2013-07-19 02:43:00,55.8,51.3,30.02,West,275,3.0,5.0,85,0.00,,,0.00,0.0,meteohub,2013-07-19 09:43:00,
2013-07-19 02:48:00,55.8,51.6,30.02,WSW,251,1.0,5.0,86,0.00,,,0.00,0.0,meteohub,2013-07-19 09:48:00,
2013-07-19 02:53:00,55.8,51.6,30.02,WNW,283,0.0,7.0,86,0.00,,,0.00,0.0,meteohub,2013-07-19 09:53:00,
2013-07-19 02:58:00,55.6,51.1,30.03,SW,219,0.0,7.0,85,0.00,,,0.00,0.0,meteohub,2013-07-19 09:58:00,
2013-07-19 03:04:00,55.6,51.4,30.03,WSW,244,1.0,7.0,86,0.00,,,0.00,0.0,meteohub,2013-07-19 10:04:00,
2013-07-19 03:09:00,55.6,51.4,30.03,WNW,297,0.0,6.0,86,0.00,,,0.00,0.0,meteohub,2013-07-19 10:09:00,
2013-07-19 03:14:00,55.6,51.1,30.03,WSW,254,4.0,4.0,85,0.00,,,0.00,0.0,meteohub,2013-07-19 10:14:00,
2013-07-19 03:19:00,55.4,51.3,30.03,WSW,254,1.0,3.0,86,0.00,,,0.00,0.0,meteohub,2013-07-19 10:19:00,
2013-07-19 03:24:00,55.2,51.1,30.03,SW,228,1.0,7.0,86,0.00,,,0.00,0.0,meteohub,2013-07-19 10:24:00,
2013-07-19 03:29:00,55.2,51.1,30.03,WSW,240,4.0,8.0,86,0.00,,,0.00,0.0,meteohub,2013-07-19 10:29:00,
2013-07-19 03:34:00,55.0,51.3,30.03,SW,236,3.0,8.0,87,0.00,,,0.00,0.0,meteohub,2013-07-19 10:34:00,
2013-07-19 03:39:00,54.9,51.1,30.03,WSW,258,1.0,8.0,87,0.00,,,0.00,0.0,meteohub,2013-07-19 10:39:00,
2013-07-19 03:44:00,54.9,51.4,30.03,SSW,213,2.0,8.0,88,0.00,,,0.00,0.0,meteohub,2013-07-19 10:44:00,
2013-07-19 03:49:00,54.9,51.4,30.03,WSW,257,3.0,7.0,88,0.00,,,0.00,0.0,meteohub,2013-07-19 10:49:00,
2013-07-19 03:54:00,54.7,51.3,30.03,WSW,247,2.0,7.0,88,0.00,,,0.00,0.0,meteohub,2013-07-19 10:54:00,
2013-07-19 03:59:00,54.7,51.3,30.03,West,273,2.0,7.0,88,0.00,,,0.00,0.0,meteohub,2013-07-19 10:59:00,
2013-07-19 04:04:00,54.5,51.3,30.03,SW,225,2.0,7.0,89,0.00,,,0.00,0.0,meteohub,2013-07-19 11:04:00,
2013-07-19 04:09:00,54.5,51.3,30.02,SSW,205,2.0,7.0,89,0.00,,,0.00,0.0,meteohub,2013-07-19 11:09:00,
2013-07-19 04:14:00,54.3,51.1,30.02,SW,234,5.0,8.0,89,0.00,,,0.00,0.0,meteohub,2013-07-19 11:14:00,
2013-07-19 04:19:00,54.3,51.1,30.02,WSW,250,1.0,8.0,89,0.00,,,0.00,0.0,meteohub,2013-07-19 11:19:00,
2013-07-19 04:24:00,54.3,51.1,30.03,NW,309,2.0,8.0,89,0.00,,,0.00,0.0,meteohub,2013-07-19 11:24:00,
2013-07-19 04:29:00,54.3,51.1,30.03,West,272,1.0,8.0,89,0.00,,,0.00,0.0,meteohub,2013-07-19 11:29:00,
2013-07-19 04:34:00,54.1,51.3,30.03,SSW,211,1.0,8.0,90,0.00,,,0.00,0.0,meteohub,2013-07-19 11:34:00,
2013-07-19 04:40:00,54.1,51.3,30.02,WSW,244,0.0,8.0,90,0.00,,,0.00,0.0,meteohub,2013-07-19 11:40:00,
2013-07-19 04:45:00,54.1,51.3,30.02,WSW,238,6.0,6.0,90,0.00,,,0.00,0.0,meteohub,2013-07-19 11:45:00,
2013-07-19 04:50:00,54.1,51.3,30.02,WSW,237,3.0,6.0,90,0.00,,,0.00,0.0,meteohub,2013-07-19 11:50:00,
2013-07-19 04:55:00,54.1,51.3,30.02,SW,229,5.0,9.0,90,0.00,,,0.00,0.0,meteohub,2013-07-19 11:55:00,
2013-07-19 05:00:00,54.3,51.4,30.03,SW,215,0.0,9.0,90,0.00,,,0.00,0.0,meteohub,2013-07-19 12:00:00,
2013-07-19 05:05:00,54.1,51.3,30.03,SW,222,3.0,8.0,90,0.00,,,0.00,0.0,meteohub,2013-07-19 12:05:00,
2013-07-19 05:10:00,54.1,51.3,30.03,WSW,239,0.0,8.0,90,0.00,,,0.00,0.0,meteohub,2013-07-19 12:10:00,
2013-07-19 05:15:00,54.1,51.3,30.03,WSW,242,1.0,7.0,90,0.00,,,0.00,0.0,meteohub,2013-07-19 12:15:00,
2013-07-19 05:20:00,54.1,51.3,30.02,West,264,2.0,7.0,90,0.00,,,0.00,0.0,meteohub,2013-07-19 12:20:00,
2013-07-19 05:25:00,54.1,51.3,30.03,WSW,238,2.0,7.0,90,0.00,,,0.00,0.0,meteohub,2013-07-19 12:25:00,
2013-07-19 05:30:00,54.1,51.3,30.03,West,259,1.0,6.0,90,0.00,,,0.00,0.0,meteohub,2013-07-19 12:30:00,
2013-07-19 05:35:00,54.0,51.1,30.03,SW,236,1.0,5.0,90,0.00,,,0.00,0.0,meteohub,2013-07-19 12:35:00,
2013-07-19 05:40:00,54.0,51.4,30.03,West,270,2.0,7.0,91,0.00,,,0.00,0.0,meteohub,2013-07-19 12:40:00,
2013-07-19 05:45:00,54.0,51.4,30.03,WSW,238,3.0,7.0,91,0.00,,,0.00,0.0,meteohub,2013-07-19 12:45:00,
2013-07-19 05:50:00,54.0,51.4,30.04,WSW,246,1.0,7.0,91,0.00,,,0.00,0.0,meteohub,2013-07-19 12:50:00,
2013-07-19 05:55:00,53.8,51.3,30.04,WSW,248,3.0,7.0,91,0.00,,,0.00,0.0,meteohub,2013-07-19 12:55:00,
2013-07-19 06:00:00,53.8,51.3,30.04,SSW,204,0.0,7.0,91,0.00,,,0.00,0.0,meteohub,2013-07-19 13:00:00,
2013-07-19 06:05:00,53.8,51.3,30.04,SW,224,1.0,6.0,91,0.00,,,0.00,0.0,meteohub,2013-07-19 13:05:00,
2013-07-19 06:11:00,53.8,51.3,30.04,WSW,246,0.0,6.0,91,0.00,,,0.00,0.0,meteohub,2013-07-19 13:11:00,
2013-07-19 06:16:00,53.6,51.1,30.04,SSW,194,4.0,6.0,91,0.00,,,0.00,5.0,meteohub,2013-07-19 13:16:00,
2013-07-19 06:21:00,53.6,51.1,30.04,WSW,239,1.0,6.0,91,0.00,,,0.00,7.0,meteohub,2013-07-19 13:21:00,
2013-07-19 06:26:00,53.4,50.9,30.04,WSW,240,0.0,6.0,91,0.00,,,0.00,7.0,meteohub,2013-07-19 13:26:00,
2013-07-19 06:31:00,53.4,50.9,30.04,WSW,242,5.0,6.0,91,0.00,,,0.00,9.0,meteohub,2013-07-19 13:31:00,
2013-07-19 06:33:00,53.6,51.1,30.04,WSW,239,6.0,6.0,91,0.00,,,0.00,11.0,meteohub,2013-07-19 13:33:00,
2013-07-19 06:38:00,53.6,51.1,30.04,WSW,242,2.0,7.0,91,0.00,,,0.00,11.0,meteohub,2013-07-19 13:38:00,
2013-07-19 06:43:00,53.6,51.1,30.04,SSW,199,3.0,7.0,91,0.00,,,0.00,12.0,meteohub,2013-07-19 13:43:00,
2013-07-19 06:48:00,53.6,51.1,30.04,West,272,3.0,7.0,91,0.00,,,0.00,14.0,meteohub,2013-07-19 13:48:00,
2013-07-19 06:53:00,53.6,51.1,30.04,West,265,3.0,7.0,91,0.00,,,0.00,14.0,meteohub,2013-07-19 13:53:00,
2013-07-19 06:58:00,53.8,51.3,30.04,West,266,0.0,7.0,91,0.00,,,0.00,14.0,meteohub,2013-07-19 13:58:00,
2013-07-19 07:03:00,53.8,51.3,30.04,WSW,240,4.0,7.0,91,0.00,,,0.00,16.0,meteohub,2013-07-19 14:03:00,
2013-07-19 07:08:00,53.8,51.3,30.04,WSW,257,3.0,7.0,91,0.00,,,0.00,18.0,meteohub,2013-07-19 14:08:00,
2013-07-19 07:13:00,54.0,51.4,30.04,SW,233,3.0,7.0,91,0.00,,,0.00,18.0,meteohub,2013-07-19 14:13:00,
2013-07-19 07:18:00,54.1,51.6,30.04,SW,227,3.0,7.0,91,0.00,,,0.00,19.0,meteohub,2013-07-19 14:18:00,
2013-07-19 07:23:00,54.1,51.8,30.04,WSW,249,2.0,7.0,92,0.00,,,0.00,19.0,meteohub,2013-07-19 14:23:00,
2013-07-19 07:28:00,54.1,51.6,30.04,SW,235,5.0,6.0,91,0.00,,,0.00,21.0,meteohub,2013-07-19 14:28:00,
2013-07-19 07:33:00,54.3,51.8,30.04,WSW,257,4.0,6.0,91,0.00,,,0.00,21.0,meteohub,2013-07-19 14:33:00,
2013-07-19 07:38:00,54.5,52.0,30.05,WSW,246,1.0,7.0,91,0.00,,,0.00,25.0,meteohub,2013-07-19 14:38:00,
2013-07-19 07:43:00,54.7,52.2,30.04,South,184,6.0,7.0,91,0.00,,,0.00,23.0,meteohub,2013-07-19 14:43:00,
2013-07-19 07:49:00,54.9,52.3,30.04,WSW,242,2.0,7.0,91,0.00,,,0.00,23.0,meteohub,2013-07-19 14:49:00,
2013-07-19 07:54:00,55.0,52.5,30.05,WSW,250,2.0,7.0,91,0.00,,,0.00,23.0,meteohub,2013-07-19 14:54:00,
2013-07-19 07:59:00,55.2,52.7,30.05,SW,230,2.0,7.0,91,0.00,,,0.00,23.0,meteohub,2013-07-19 14:59:00,
2013-07-19 08:04:00,55.6,53.1,30.05,WSW,242,1.0,8.0,91,0.00,,,0.00,25.0,meteohub,2013-07-19 15:04:00,
2013-07-19 08:09:00,55.8,53.2,30.04,SW,231,2.0,8.0,91,0.00,,,0.00,25.0,meteohub,2013-07-19 15:09:00,
2013-07-19 08:14:00,55.9,53.1,30.04,WSW,242,0.0,6.0,90,0.00,,,0.00,30.0,meteohub,2013-07-19 15:14:00,
2013-07-19 08:19:00,56.3,53.4,30.05,WSW,257,5.0,6.0,90,0.00,,,0.00,26.0,meteohub,2013-07-19 15:19:00,
2013-07-19 08:24:00,56.7,53.4,30.05,WSW,247,6.0,7.0,89,0.00,,,0.00,26.0,meteohub,2013-07-19 15:24:00,
2013-07-19 08:29:00,57.0,53.8,30.05,West,268,2.0,7.0,89,0.00,,,0.00,26.0,meteohub,2013-07-19 15:29:00,
2013-07-19 08:34:00,57.4,54.1,30.05,West,260,3.0,7.0,89,0.00,,,0.00,26.0,meteohub,2013-07-19 15:34:00,
2013-07-19 08:39:00,57.7,54.1,30.05,WSW,239,2.0,7.0,88,0.00,,,0.00,28.0,meteohub,2013-07-19 15:39:00,
2013-07-19 08:44:00,58.3,54.5,30.05,SW,234,3.0,7.0,87,0.00,,,0.00,28.0,meteohub,2013-07-19 15:44:00,
2013-07-19 08:49:00,58.6,54.5,30.05,WSW,254,2.0,7.0,86,0.00,,,0.00,28.0,meteohub,2013-07-19 15:49:00,
2013-07-19 08:54:00,59.2,54.7,30.05,SSW,205,6.0,6.0,85,0.00,,,0.00,30.0,meteohub,2013-07-19 15:54:00,
2013-07-19 08:59:00,59.4,54.5,30.05,SW,234,2.0,7.0,84,0.00,,,0.00,30.0,meteohub,2013-07-19 15:59:00,
2013-07-19 09:04:00,59.7,54.5,30.05,WSW,246,2.0,9.0,83,0.00,,,0.00,35.0,meteohub,2013-07-19 16:04:00,
2013-07-19 09:09:00,60.1,54.9,30.04,SW,235,4.0,9.0,83,0.00,,,0.00,35.0,meteohub,2013-07-19 16:09:00,
2013-07-19 09:15:00,60.6,55.0,30.05,WSW,244,3.0,8.0,82,0.00,,,0.00,33.0,meteohub,2013-07-19 16:15:00,
2013-07-19 09:20:00,61.2,55.2,30.05,SW,214,3.0,8.0,81,0.00,,,0.00,33.0,meteohub,2013-07-19 16:20:00,
2013-07-19 09:25:00,61.5,55.2,30.05,WSW,257,1.0,8.0,80,0.00,,,0.00,35.0,meteohub,2013-07-19 16:25:00,
2013-07-19 09:30:00,62.1,55.8,30.05,WSW,250,1.0,7.0,80,0.00,,,0.00,35.0,meteohub,2013-07-19 16:30:00,
2013-07-19 09:35:00,62.8,55.8,30.04,WSW,252,5.0,6.0,78,0.00,,,0.00,37.0,meteohub,2013-07-19 16:35:00,
2013-07-19 09:40:00,63.1,55.8,30.04,WSW,255,2.0,7.0,77,0.00,,,0.00,39.0,meteohub,2013-07-19 16:40:00,
2013-07-19 09:45:00,63.9,56.1,30.04,SW,229,1.0,8.0,76,0.00,,,0.00,40.0,meteohub,2013-07-19 16:45:00,
2013-07-19 09:50:00,64.8,56.7,30.04,West,267,3.0,8.0,75,0.00,,,0.00,42.0,meteohub,2013-07-19 16:50:00,
2013-07-19 09:55:00,65.3,56.5,30.04,West,260,1.0,7.0,73,0.00,,,0.00,51.0,meteohub,2013-07-19 16:55:00,
2013-07-19 10:00:00,65.8,56.5,30.04,West,264,2.0,7.0,72,0.00,,,0.00,47.0,meteohub,2013-07-19 17:00:00,
2013-07-19 10:05:00,66.4,56.7,30.04,WSW,248,2.0,9.0,71,0.00,,,0.00,47.0,meteohub,2013-07-19 17:05:00,
2013-07-19 10:10:00,66.7,56.7,30.04,SW,234,5.0,9.0,70,0.00,,,0.00,47.0,meteohub,2013-07-19 17:10:00,
2013-07-19 10:15:00,67.1,56.7,30.04,West,267,3.0,8.0,69,0.00,,,0.00,65.0,meteohub,2013-07-19 17:15:00,
2013-07-19 10:20:00,67.5,56.5,30.04,WNW,284,2.0,11.0,68,0.00,,,0.00,51.0,meteohub,2013-07-19 17:20:00,
2013-07-19 10:25:00,67.8,56.5,30.05,WSW,241,6.0,12.0,67,0.00,,,0.00,53.0,meteohub,2013-07-19 17:25:00,
2013-07-19 10:30:00,68.5,56.7,30.04,SW,219,4.0,12.0,66,0.00,,,0.00,67.0,meteohub,2013-07-19 17:30:00,
2013-07-19 10:35:00,69.1,56.5,30.04,West,275,1.0,12.0,64,0.00,,,0.00,114.0,meteohub,2013-07-19 17:35:00,
2013-07-19 10:40:00,69.6,56.8,30.04,SW,229,6.0,12.0,64,0.00,,,0.00,715.0,meteohub,2013-07-19 17:40:00,
2013-07-19 10:46:00,70.2,56.5,30.04,SW,236,1.0,12.0,62,0.00,,,0.00,721.0,meteohub,2013-07-19 17:46:00,
2013-07-19 10:51:00,70.5,56.5,30.04,WSW,242,4.0,7.0,61,0.00,,,0.00,733.0,meteohub,2013-07-19 17:51:00,
2013-07-19 10:56:00,71.2,56.1,30.04,SW,227,2.0,7.0,59,0.00,,,0.00,738.0,meteohub,2013-07-19 17:56:00,
2013-07-19 11:01:00,72.0,55.9,30.04,WSW,238,5.0,10.0,57,0.00,,,0.00,592.0,meteohub,2013-07-19 18:01:00,
2013-07-19 11:06:00,72.9,55.8,30.04,WSW,247,1.0,10.0,55,0.00,,,0.00,125.0,meteohub,2013-07-19 18:06:00,
2013-07-19 11:11:00,74.3,56.1,30.04,WSW,248,8.0,10.0,53,0.00,,,0.00,74.0,meteohub,2013-07-19 18:11:00,
2013-07-19 11:16:00,75.4,56.5,30.04,WSW,247,6.0,9.0,52,0.00,,,0.00,76.0,meteohub,2013-07-19 18:16:00,
2013-07-19 11:21:00,76.1,55.6,30.04,SW,220,5.0,9.0,49,0.00,,,0.00,77.0,meteohub,2013-07-19 18:21:00,
2013-07-19 11:26:00,76.6,56.1,30.04,WSW,238,5.0,9.0,49,0.00,,,0.00,79.0,meteohub,2013-07-19 18:26:00,
2013-07-19 11:31:00,76.6,55.4,30.04,WSW,252,7.0,8.0,48,0.00,,,0.00,81.0,meteohub,2013-07-19 18:31:00,
2013-07-19 11:36:00,77.2,54.9,30.04,WSW,245,4.0,9.0,46,0.00,,,0.00,83.0,meteohub,2013-07-19 18:36:00,
2013-07-19 11:41:00,77.5,55.0,30.04,West,273,5.0,9.0,46,0.00,,,0.00,84.0,meteohub,2013-07-19 18:41:00,
2013-07-19 11:46:00,78.4,54.7,30.04,SW,234,7.0,9.0,44,0.00,,,0.00,84.0,meteohub,2013-07-19 18:46:00,
2013-07-19 11:51:00,78.4,55.4,30.03,West,262,4.0,10.0,45,0.00,,,0.00,93.0,meteohub,2013-07-19 18:51:00,
2013-07-19 11:56:00,79.0,55.2,30.03,SW,224,7.0,10.0,44,0.00,,,0.00,88.0,meteohub,2013-07-19 18:56:00,
2013-07-19 12:02:00,79.2,55.4,30.03,West,264,2.0,9.0,44,0.00,,,0.00,90.0,meteohub,2013-07-19 19:02:00,
2013-07-19 12:07:00,80.4,55.9,30.03,SW,233,4.0,9.0,43,0.00,,,0.00,91.0,meteohub,2013-07-19 19:07:00,
2013-07-19 12:12:00,81.1,55.9,30.03,West,273,5.0,9.0,42,0.00,,,0.00,120.0,meteohub,2013-07-19 19:12:00,
2013-07-19 12:17:00,82.2,55.6,30.02,West,275,4.0,8.0,40,0.00,,,0.00,763.0,meteohub,2013-07-19 19:17:00,
2013-07-19 12:22:00,82.9,56.1,30.02,West,265,4.0,9.0,40,0.00,,,0.00,874.0,meteohub,2013-07-19 19:22:00,
2013-07-19 12:27:00,83.5,56.7,30.02,WSW,244,8.0,9.0,40,0.00,,,0.00,874.0,meteohub,2013-07-19 19:27:00,
2013-07-19 12:32:00,83.8,56.3,30.02,West,265,4.0,9.0,39,0.00,,,0.00,875.0,meteohub,2013-07-19 19:32:00,
2013-07-19 12:37:00,84.7,56.3,30.02,SW,229,5.0,9.0,38,0.00,,,0.00,870.0,meteohub,2013-07-19 19:37:00,
2013-07-19 12:42:00,85.3,56.8,30.02,WSW,257,3.0,9.0,38,0.00,,,0.00,872.0,meteohub,2013-07-19 19:42:00,
2013-07-19 12:47:00,85.6,56.3,30.01,WSW,242,6.0,7.0,37,0.00,,,0.00,881.0,meteohub,2013-07-19 19:47:00,
2013-07-19 12:52:00,85.8,56.5,30.01,WNW,290,5.0,8.0,37,0.00,,,0.00,879.0,meteohub,2013-07-19 19:52:00,
2013-07-19 12:57:00,86.4,56.3,30.01,WSW,238,4.0,9.0,36,0.00,,,0.00,877.0,meteohub,2013-07-19 19:57:00,
2013-07-19 13:02:00,86.2,56.8,30.01,NW,315,4.0,9.0,37,0.00,,,0.00,882.0,meteohub,2013-07-19 20:02:00,
2013-07-19 13:07:00,86.7,56.7,30.01,NW,304,3.0,9.0,36,0.00,,,0.00,891.0,meteohub,2013-07-19 20:07:00,
2013-07-19 13:12:00,87.3,56.3,30.00,West,275,5.0,9.0,35,0.00,,,0.00,900.0,meteohub,2013-07-19 20:12:00,
2013-07-19 13:17:00,87.6,56.7,30.00,WSW,242,3.0,9.0,35,0.00,,,0.00,907.0,meteohub,2013-07-19 20:17:00,
2013-07-19 13:22:00,88.2,57.0,30.00,WSW,240,8.0,9.0,35,0.00,,,0.00,909.0,meteohub,2013-07-19 20:22:00,
2013-07-19 13:27:00,88.2,56.3,30.00,WSW,250,4.0,9.0,34,0.00,,,0.00,912.0,meteohub,2013-07-19 20:27:00,
2013-07-19 13:32:00,88.0,56.8,29.99,West,276,4.0,9.0,35,0.00,,,0.00,912.0,meteohub,2013-07-19 20:32:00,
2013-07-19 13:37:00,88.5,57.4,29.99,NNW,332,5.0,9.0,35,0.00,,,0.00,912.0,meteohub,2013-07-19 20:37:00,
2013-07-19 13:42:00,89.1,57.0,29.99,West,259,6.0,9.0,34,0.00,,,0.00,914.0,meteohub,2013-07-19 20:42:00,
2013-07-19 13:47:00,89.4,57.4,29.99,WNW,299,4.0,8.0,34,0.00,,,0.00,918.0,meteohub,2013-07-19 20:47:00,
2013-07-19 13:52:00,89.4,57.4,29.99,WSW,247,4.0,10.0,34,0.00,,,0.00,916.0,meteohub,2013-07-19 20:52:00,
2013-07-19 13:57:00,88.7,57.6,29.99,WSW,237,5.0,10.0,35,0.00,,,0.00,909.0,meteohub,2013-07-19 20:57:00,
2013-07-19 14:02:00,88.9,56.8,29.99,West,279,3.0,10.0,34,0.00,,,0.00,907.0,meteohub,2013-07-19 21:02:00,
2013-07-19 14:07:00,90.0,57.0,29.99,WSW,258,4.0,9.0,33,0.00,,,0.00,907.0,meteohub,2013-07-19 21:07:00,
2013-07-19 14:12:00,90.0,57.0,29.98,West,263,3.0,9.0,33,0.00,,,0.00,918.0,meteohub,2013-07-19 21:12:00,
2013-07-19 14:17:00,89.4,56.5,29.98,WSW,239,5.0,9.0,33,0.00,,,0.00,946.0,meteohub,2013-07-19 21:17:00,
2013-07-19 14:22:00,89.6,56.7,29.98,WSW,246,4.0,9.0,33,0.00,,,0.00,905.0,meteohub,2013-07-19 21:22:00,
2013-07-19 14:27:00,89.4,56.5,29.98,West,268,4.0,9.0,33,0.00,,,0.00,882.0,meteohub,2013-07-19 21:27:00,
2013-07-19 14:32:00,90.7,57.6,29.98,WSW,239,5.0,10.0,33,0.00,,,0.00,882.0,meteohub,2013-07-19 21:32:00,
2013-07-19 14:37:00,90.9,56.8,29.98,West,265,2.0,10.0,32,0.00,,,0.00,882.0,meteohub,2013-07-19 21:37:00,
2013-07-19 14:42:00,91.8,57.7,29.98,SW,234,7.0,9.0,32,0.00,,,0.00,881.0,meteohub,2013-07-19 21:42:00,
2013-07-19 14:47:00,91.8,56.8,29.97,West,264,6.0,8.0,31,0.00,,,0.00,872.0,meteohub,2013-07-19 21:47:00,
2013-07-19 14:52:00,91.6,56.7,29.97,WSW,239,7.0,12.0,31,0.00,,,0.00,870.0,meteohub,2013-07-19 21:52:00,
2013-07-19 14:58:00,91.0,57.0,29.98,West,264,5.0,12.0,32,0.00,,,0.00,861.0,meteohub,2013-07-19 21:58:00,
2013-07-19 15:03:00,91.2,57.2,29.97,WSW,258,3.0,12.0,32,0.00,,,0.00,856.0,meteohub,2013-07-19 22:03:00,
2013-07-19 15:08:00,91.6,57.6,29.97,West,279,5.0,10.0,32,0.00,,,0.00,853.0,meteohub,2013-07-19 22:08:00,
2013-07-19 15:13:00,92.1,58.1,29.97,SW,235,8.0,10.0,32,0.00,,,0.00,846.0,meteohub,2013-07-19 22:13:00,
2013-07-19 15:18:00,91.9,57.9,29.97,SW,233,5.0,9.0,32,0.00,,,0.00,837.0,meteohub,2013-07-19 22:18:00,
2013-07-19 15:23:00,92.1,58.1,29.97,SW,235,7.0,10.0,32,0.00,,,0.00,828.0,meteohub,2013-07-19 22:23:00,
2013-07-19 15:28:00,92.1,58.1,29.96,WSW,240,6.0,10.0,32,0.00,,,0.00,816.0,meteohub,2013-07-19 22:28:00,
2013-07-19 15:33:00,91.9,57.9,29.96,South,174,6.0,10.0,32,0.00,,,0.00,809.0,meteohub,2013-07-19 22:33:00,
2013-07-19 15:38:00,91.9,57.0,29.96,West,261,5.0,10.0,31,0.00,,,0.00,795.0,meteohub,2013-07-19 22:38:00,
2013-07-19 15:43:00,91.9,57.9,29.96,SW,229,9.0,10.0,32,0.00,,,0.00,789.0,meteohub,2013-07-19 22:43:00,
2013-07-19 15:48:00,91.0,57.0,29.96,SSW,197,7.0,11.0,32,0.00,,,0.00,788.0,meteohub,2013-07-19 22:48:00,
2013-07-19 15:53:00,90.7,55.9,29.96,West,260,4.0,11.0,31,0.00,,,0.00,775.0,meteohub,2013-07-19 22:53:00,
2013-07-19 15:58:00,90.9,56.8,29.96,West,262,3.0,11.0,32,0.00,,,0.00,763.0,meteohub,2013-07-19 22:58:00,
2013-07-19 16:03:00,91.2,56.3,29.96,WSW,248,4.0,11.0,31,0.00,,,0.00,752.0,meteohub,2013-07-19 23:03:00,
2013-07-19 16:08:00,91.6,55.8,29.95,SW,222,7.0,9.0,30,0.00,,,0.00,740.0,meteohub,2013-07-19 23:08:00,
2013-07-19 16:13:00,91.2,57.2,29.95,WSW,258,5.0,10.0,32,0.00,,,0.00,733.0,meteohub,2013-07-19 23:13:00,
2013-07-19 16:18:00,91.0,56.1,29.95,WSW,240,5.0,10.0,31,0.00,,,0.00,721.0,meteohub,2013-07-19 23:18:00,
2013-07-19 16:23:00,91.2,55.4,29.95,WSW,240,8.0,11.0,30,0.00,,,0.00,710.0,meteohub,2013-07-19 23:23:00,
2013-07-19 16:29:00,91.2,55.4,29.95,West,281,3.0,11.0,30,0.00,,,0.00,701.0,meteohub,2013-07-19 23:29:00,
2013-07-19 16:34:00,92.5,55.6,29.94,West,274,4.0,11.0,29,0.00,,,0.00,687.0,meteohub,2013-07-19 23:34:00,
2013-07-19 16:39:00,92.7,55.8,29.95,West,270,4.0,11.0,29,0.00,,,0.00,671.0,meteohub,2013-07-19 23:39:00,
2013-07-19 16:44:00,93.0,56.1,29.95,WSW,248,3.0,11.0,29,0.00,,,0.00,657.0,meteohub,2013-07-19 23:44:00,
2013-07-19 16:49:00,93.0,55.0,29.94,West,261,2.0,11.0,28,0.00,,,0.00,642.0,meteohub,2013-07-19 23:49:00,
2013-07-19 16:54:00,93.2,55.2,29.94,West,269,2.0,11.0,28,0.00,,,0.00,628.0,meteohub,2013-07-19 23:54:00,
2013-07-19 16:59:00,93.0,56.1,29.94,SW,232,6.0,8.0,29,0.00,,,0.00,615.0,meteohub,2013-07-19 23:59:00,
2013-07-19 17:04:00,92.5,55.6,29.94,WSW,238,4.0,9.0,29,0.00,,,0.00,594.0,meteohub,2013-07-20 00:04:00,
2013-07-19 17:09:00,92.5,55.6,29.94,WSW,239,4.0,9.0,29,0.00,,,0.00,587.0,meteohub,2013-07-20 00:09:00,
2013-07-19 17:14:00,91.8,55.0,29.94,West,265,5.0,11.0,29,0.00,,,0.00,570.0,meteohub,2013-07-20 00:14:00,
2013-07-19 17:19:00,91.2,55.4,29.94,West,261,4.0,11.0,30,0.00,,,0.00,564.0,meteohub,2013-07-20 00:19:00,
2013-07-19 17:24:00,90.9,54.1,29.94,West,267,6.0,9.0,29,0.00,,,0.00,554.0,meteohub,2013-07-20 00:24:00,
2013-07-19 17:29:00,90.7,54.1,29.94,WSW,250,7.0,9.0,29,0.00,,,0.00,540.0,meteohub,2013-07-20 00:29:00,
2013-07-19 17:34:00,90.0,54.3,29.93,WSW,250,5.0,9.0,30,0.00,,,0.00,524.0,meteohub,2013-07-20 00:34:00,
2013-07-19 17:39:00,88.9,55.2,29.93,WSW,253,9.0,10.0,32,0.00,,,0.00,508.0,meteohub,2013-07-20 00:39:00,
2013-07-19 17:45:00,88.3,54.7,29.93,WSW,253,4.0,13.0,32,0.00,,,0.00,496.0,meteohub,2013-07-20 00:45:00,
2013-07-19 17:50:00,88.2,55.4,29.93,WSW,258,9.0,13.0,33,0.00,,,0.00,482.0,meteohub,2013-07-20 00:50:00,
2013-07-19 17:55:00,87.8,55.0,29.93,West,265,4.0,13.0,33,0.00,,,0.00,464.0,meteohub,2013-07-20 00:55:00,
2013-07-19 18:00:00,87.4,55.6,29.92,WSW,247,7.0,10.0,34,0.00,,,0.00,448.0,meteohub,2013-07-20 01:00:00,
2013-07-19 18:05:00,87.3,54.7,29.92,WSW,246,9.0,11.0,33,0.00,,,0.00,434.0,meteohub,2013-07-20 01:05:00,
2013-07-19 18:10:00,86.5,54.9,29.92,WSW,238,8.0,11.0,34,0.00,,,0.00,418.0,meteohub,2013-07-20 01:10:00,
2013-07-19 18:15:00,85.8,55.0,29.92,WNW,297,4.0,11.0,35,0.00,,,0.00,399.0,meteohub,2013-07-20 01:15:00,
2013-07-19 18:20:00,85.3,54.5,29.92,West,266,5.0,13.0,35,0.00,,,0.00,383.0,meteohub,2013-07-20 01:20:00,
2013-07-19 18:26:00,84.6,54.7,29.92,West,264,6.0,13.0,36,0.00,,,0.00,367.0,meteohub,2013-07-20 01:26:00,
2013-07-19 18:31:00,84.0,54.9,29.92,SW,227,5.0,13.0,37,0.00,,,0.00,350.0,meteohub,2013-07-20 01:31:00,
2013-07-19 18:36:00,83.3,55.0,29.92,West,277,4.0,12.0,38,0.00,,,0.00,334.0,meteohub,2013-07-20 01:36:00,
2013-07-19 18:41:00,82.9,54.7,29.92,WSW,238,3.0,12.0,38,0.00,,,0.00,316.0,meteohub,2013-07-20 01:41:00,
2013-07-19 18:46:00,82.8,55.2,29.92,WSW,254,4.0,12.0,39,0.00,,,0.00,299.0,meteohub,2013-07-20 01:46:00,
2013-07-19 18:51:00,82.0,54.7,29.92,WNW,298,4.0,9.0,39,0.00,,,0.00,281.0,meteohub,2013-07-20 01:51:00,
2013-07-19 18:56:00,81.7,55.0,29.92,West,274,6.0,10.0,40,0.00,,,0.00,265.0,meteohub,2013-07-20 01:56:00,
2013-07-19 19:01:00,81.1,54.5,29.93,SW,228,7.0,10.0,40,0.00,,,0.00,246.0,meteohub,2013-07-20 02:01:00,
2013-07-19 19:06:00,80.4,54.0,29.92,SSE,153,9.0,10.0,40,0.00,,,0.00,227.0,meteohub,2013-07-20 02:06:00,
2013-07-19 19:11:00,79.5,53.1,29.93,West,273,4.0,10.0,40,0.00,,,0.00,207.0,meteohub,2013-07-20 02:11:00,
2013-07-19 19:16:00,78.6,52.9,29.93,West,271,4.0,10.0,41,0.00,,,0.00,192.0,meteohub,2013-07-20 02:16:00,
2013-07-19 19:21:00,78.1,53.1,29.93,West,271,4.0,11.0,42,0.00,,,0.00,172.0,meteohub,2013-07-20 02:21:00,
2013-07-19 19:26:00,77.5,52.7,29.93,West,275,5.0,11.0,42,0.00,,,0.00,153.0,meteohub,2013-07-20 02:26:00,
2013-07-19 19:31:00,76.8,52.0,29.93,West,281,2.0,11.0,42,0.00,,,0.00,134.0,meteohub,2013-07-20 02:31:00,
2013-07-19 19:36:00,76.3,52.2,29.93,West,269,4.0,10.0,43,0.00,,,0.00,114.0,meteohub,2013-07-20 02:36:00,
2013-07-19 19:42:00,75.7,51.6,29.93,SW,219,7.0,11.0,43,0.00,,,0.00,90.0,meteohub,2013-07-20 02:42:00,
2013-07-19 19:47:00,75.4,51.3,29.93,WSW,257,4.0,11.0,43,0.00,,,0.00,23.0,meteohub,2013-07-20 02:47:00,
2013-07-19 19:52:00,75.0,51.1,29.93,SSW,206,6.0,11.0,43,0.00,,,0.00,28.0,meteohub,2013-07-20 02:52:00,
2013-07-19 19:57:00,74.8,51.4,29.93,West,281,4.0,11.0,44,0.00,,,0.00,16.0,meteohub,2013-07-20 02:57:00,
2013-07-19 20:02:00,74.7,52.0,29.93,WNW,289,1.0,11.0,45,0.00,,,0.00,14.0,meteohub,2013-07-20 03:02:00,
2013-07-19 20:07:00,74.1,51.4,29.93,East,93,1.0,9.0,45,0.00,,,0.00,12.0,meteohub,2013-07-20 03:07:00,
2013-07-19 20:12:00,74.1,51.4,29.93,WSW,252,2.0,8.0,45,0.00,,,0.00,11.0,meteohub,2013-07-20 03:12:00,
2013-07-19 20:17:00,73.9,51.3,29.93,WSW,254,1.0,8.0,45,0.00,,,0.00,7.0,meteohub,2013-07-20 03:17:00,
2013-07-19 20:22:00,73.6,50.9,29.94,SW,230,2.0,6.0,45,0.00,,,0.00,5.0,meteohub,2013-07-20 03:22:00,
2013-07-19 20:27:00,73.0,51.1,29.94,West,269,1.0,8.0,46,0.00,,,0.00,0.0,meteohub,2013-07-20 03:27:00,
2013-07-19 20:32:00,72.9,50.9,29.94,NW,309,0.0,8.0,46,0.00,,,0.00,0.0,meteohub,2013-07-20 03:32:00,
2013-07-19 20:37:00,72.1,50.7,29.94,WNW,288,1.0,5.0,47,0.00,,,0.00,0.0,meteohub,2013-07-20 03:37:00,
2013-07-19 20:42:00,71.8,51.1,29.94,WNW,292,1.0,4.0,48,0.00,,,0.00,0.0,meteohub,2013-07-20 03:42:00,
2013-07-19 20:47:00,71.2,51.1,29.94,WNW,284,0.0,4.0,49,0.00,,,0.00,0.0,meteohub,2013-07-20 03:47:00,
2013-07-19 20:52:00,70.9,51.3,29.94,West,269,0.0,4.0,50,0.00,,,0.00,0.0,meteohub,2013-07-20 03:52:00,
2013-07-19 20:57:00,70.5,51.4,29.94,West,269,0.0,4.0,51,0.00,,,0.00,0.0,meteohub,2013-07-20 03:57:00,
2013-07-19 21:01:00,70.2,51.3,29.95,West,273,0.0,3.0,51,0.00,,,0.00,0.0,meteohub,2013-07-20 04:01:00,
2013-07-19 21:02:00,70.2,51.3,29.95,West,273,0.0,3.0,51,0.00,,,0.00,0.0,meteohub,2013-07-20 04:02:00,
2013-07-19 21:07:00,69.4,51.1,29.95,WSW,245,3.0,4.0,52,0.00,,,0.00,0.0,meteohub,2013-07-20 04:07:00,
2013-07-19 21:09:00,69.3,50.9,29.95,WSW,244,2.0,4.0,52,0.00,,,0.00,0.0,meteohub,2013-07-20 04:09:00,
2013-07-19 21:14:00,68.7,50.9,29.95,SSW,192,0.0,4.0,53,0.00,,,0.00,0.0,meteohub,2013-07-20 04:14:00,
2013-07-19 21:19:00,68.4,50.5,29.95,WSW,247,5.0,5.0,53,0.00,,,0.00,0.0,meteohub,2013-07-20 04:19:00,
2013-07-19 21:24:00,68.4,50.5,29.95,SW,220,1.0,4.0,53,0.00,,,0.00,0.0,meteohub,2013-07-20 04:24:00,
2013-07-19 21:29:00,68.2,50.4,29.95,WSW,248,0.0,7.0,53,0.00,,,0.00,0.0,meteohub,2013-07-20 04:29:00,
2013-07-19 21:34:00,68.2,50.9,29.95,SW,229,0.0,7.0,54,0.00,,,0.00,0.0,meteohub,2013-07-20 04:34:00,
2013-07-19 21:39:00,67.6,50.4,29.96,SW,218,0.0,6.0,54,0.00,,,0.00,0.0,meteohub,2013-07-20 04:39:00,
2013-07-19 21:44:00,67.3,51.1,29.96,SW,220,5.0,5.0,56,0.00,,,0.00,0.0,meteohub,2013-07-20 04:44:00,
2013-07-19 21:49:00,66.7,51.1,29.96,SW,224,2.0,5.0,57,0.00,,,0.00,0.0,meteohub,2013-07-20 04:49:00,
2013-07-19 21:54:00,66.2,50.9,29.96,WSW,254,5.0,5.0,58,0.00,,,0.00,0.0,meteohub,2013-07-20 04:54:00,
2013-07-19 21:59:00,65.7,50.5,29.96,WSW,255,2.0,5.0,58,0.00,,,0.00,0.0,meteohub,2013-07-20 04:59:00,
2013-07-19 22:04:00,65.7,50.9,29.96,SW,234,6.0,8.0,59,0.00,,,0.00,0.0,meteohub,2013-07-20 05:04:00,
2013-07-19 22:09:00,64.9,50.7,29.96,West,273,4.0,8.0,60,0.00,,,0.00,0.0,meteohub,2013-07-20 05:09:00,
2013-07-19 22:14:00,64.8,50.5,29.96,SW,235,2.0,8.0,60,0.00,,,0.00,0.0,meteohub,2013-07-20 05:14:00,
2013-07-19 22:19:00,64.2,50.9,29.96,West,273,2.0,8.0,62,0.00,,,0.00,0.0,meteohub,2013-07-20 05:19:00,
2013-07-19 22:24:00,63.7,50.9,29.96,West,262,4.0,8.0,63,0.00,,,0.00,0.0,meteohub,2013-07-20 05:24:00,
2013-07-19 22:29:00,63.1,50.7,29.96,WSW,246,6.0,7.0,64,0.00,,,0.00,0.0,meteohub,2013-07-20 05:29:00,
2013-07-19 22:34:00,62.4,50.9,29.96,SW,219,7.0,9.0,66,0.00,,,0.00,0.0,meteohub,2013-07-20 05:34:00,
2013-07-19 22:40:00,61.9,50.7,29.96,WSW,246,4.0,9.0,67,0.00,,,0.00,0.0,meteohub,2013-07-20 05:40:00,
2013-07-19 22:45:00,61.3,50.7,29.96,SW,227,9.0,9.0,68,0.00,,,0.00,0.0,meteohub,2013-07-20 05:45:00,
2013-07-19 22:50:00,61.3,51.1,29.96,SW,227,2.0,8.0,69,0.00,,,0.00,0.0,meteohub,2013-07-20 05:50:00,
2013-07-19 22:55:00,61.2,51.3,29.96,SW,215,2.0,9.0,70,0.00,,,0.00,0.0,meteohub,2013-07-20 05:55:00,
2013-07-19 23:00:00,61.3,51.8,29.96,SW,219,4.0,9.0,71,0.00,,,0.00,0.0,meteohub,2013-07-20 06:00:00,
2013-07-19 23:05:00,61.3,51.8,29.96,WSW,252,7.0,8.0,71,0.00,,,0.00,0.0,meteohub,2013-07-20 06:05:00,
2013-07-19 23:10:00,61.3,51.8,29.96,WSW,252,1.0,8.0,71,0.00,,,0.00,0.0,meteohub,2013-07-20 06:10:00,
2013-07-19 23:15:00,61.5,52.0,29.96,WSW,240,6.0,8.0,71,0.00,,,0.00,0.0,meteohub,2013-07-20 06:15:00,
2013-07-19 23:20:00,61.3,52.2,29.96,SW,234,4.0,7.0,72,0.00,,,0.00,0.0,meteohub,2013-07-20 06:20:00,
2013-07-19 23:25:00,61.0,52.0,29.96,WSW,243,5.0,8.0,72,0.00,,,0.00,0.0,meteohub,2013-07-20 06:25:00,
2013-07-19 23:30:00,60.6,52.0,29.96,WSW,257,4.0,8.0,73,0.00,,,0.00,0.0,meteohub,2013-07-20 06:30:00,
2013-07-19 23:35:00,60.4,51.8,29.96,West,262,4.0,8.0,73,0.00,,,0.00,0.0,meteohub,2013-07-20 06:35:00,
2013-07-19 23:40:00,60.3,51.6,29.96,West,259,4.0,8.0,73,0.00,,,0.00,0.0,meteohub,2013-07-20 06:40:00,
2013-07-19 23:45:00,60.1,51.8,29.96,WSW,256,7.0,8.0,74,0.00,,,0.00,0.0,meteohub,2013-07-20 06:45:00,
2013-07-19 23:50:00,59.7,51.8,29.96,SW,236,4.0,8.0,75,0.00,,,0.00,0.0,meteohub,2013-07-20 06:50:00,
2013-07-19 23:55:00,59.5,51.6,29.95,SW,234,4.0,8.0,75,0.00,,,0.00,0.0,meteohub,2013-07-20 06:55:00,